Regional Weather Roundup
Issued by NWS

Home | Current Version | Previous Version | Graphics & Text | Print | Product List | Glossary On
Versions: 1 2 3 4 5 6 7 8 9 10 11 12 13 14 15 16 17 18 19 20 21 22 23 24 25 26 27 28 29 30 31 32 33 34 35 36 37 38 39 40 41 42 43 44 45 46 47 48 49 50
903
ASUS45 KBOU 230610
RWRCO

WEATHER ROUNDUP FOR COLORADO
NATIONAL WEATHER SERVICE DENVER/BOULDER CO
1100 PM MST WED NOV 22 2017

NOTE: "FAIR" INDICATES FEW OR NO CLOUDS BELOW 12000 FEET WITH NO
SIGNIFICANT WEATHER AND/OR OBSTRUCTIONS TO VISIBILITY.

COZ001>005-013-030-031-230700-
...NORTHWEST COLORADO...

CITY           SKY/WX    TMP DP  RH WIND       PRES   REMARKS
CRAIG          FAIR      30  28  92 W5        30.43S WCI  25
HAYDEN         FAIR      38  34  85 SE8       30.44F
MEEKER         FAIR      34  31  88 N7        30.45S WCI  28
RABBIT EARS PA FOG      N/A N/A N/A W6        30.55S VSB 3/4
STEAMBOAT SPGS MOCLDY    36  35  97 CALM      30.44F
WALDEN         FAIR      34  32  93 E7        30.46F WCI  28
$$

COZ006>008-011-230700-
...WEST CENTRAL VALLEYS...

CITY           SKY/WX    TMP DP  RH WIND       PRES   REMARKS
GRAND JUNCTION FAIR      41  31  67 E5        30.39F
MONTROSE       FAIR      36  31  82 S9        30.45F
EAGLE          FAIR      32  29  88 CALM      30.50S
RIFLE          FAIR      34  31  88 SE3       30.44F
DELTA          FAIR      41  31  66 E3        30.44S
NUCLA          FAIR      41  30  65 E7        30.46S
$$

COZ017>023-064>068-230700-
...SOUTHWEST COLORADO...

CITY           SKY/WX    TMP DP  RH WIND       PRES   REMARKS
DURANGO        FAIR      33  24  69 CALM      30.40R
CORTEZ         FAIR      37  28  70 E7        30.38F
PAGOSA SPRINGS FAIR      35  25  64 CALM      30.43S
TELLURIDE      FAIR      37  29  75 SE7       30.53S
WOLF CREEK PAS FAIR      36  18  48 NW13G20   30.64F
$$

COZ009-010-012-014-032>034-037-058>063-230700-
...CENTRAL COLORADO...

CITY           SKY/WX    TMP DP  RH WIND       PRES   REMARKS
ASPEN          FAIR      35  31  85 S5        30.49S WCI  31
BUENA VISTA    FAIR      41  32  70 NW12      30.43F
COPPER MTN     CLOUDY    34  32  93 MISG      30.60F FOG
BERTHOUD PASS  CLOUDY    27  16  63 NW21G32   30.58R WCI  13
COTTONWOOD PAS FAIR      46  32  57 W16G29    30.50F
GUNNISON       FAIR      31  28  89 N3        30.51
KREMMLING      CLOUDY    41  37  87 CALM      30.48F
LEADVILLE      CLOUDY    35  30  82 NW3       30.52F
MONARCH PASS   FAIR      32  28  86 NW13G21   30.70F WCI  22
SALIDA         FAIR      46  33  61 W5        30.49S
SUNLIGHT       FAIR      34  30  86 NW5       30.62F WCI  30
WILKERSON PASS FAIR      34  27  75 N10G21    30.56S WCI  26
$$

COZ069>075-230700-
...SAN LUIS VALLEY/SANGRE DE CRISTO MOUNTAINS...

CITY           SKY/WX    TMP DP  RH WIND       PRES   REMARKS
ALAMOSA        FAIR      33  26  75 SW8       30.42F WCI  26
DEL NORTE      FAIR      39  27  63 CALM      30.45S
LA VETA PASS   FAIR      34  27  75 SW14G23     N/A  WCI  24
SAGUACHE       FAIR      45  32  61 NW12      30.45S
$$

COZ035-036-038>040-230700-
...NORTHERN COLORADO FRONT RANGE...

CITY           SKY/WX    TMP DP  RH WIND       PRES   REMARKS
DENVER INTL AP FAIR      47  34  60 SW10      30.26S
DMNS CITY PARK   N/A     49  34  56 SE10      30.27R
AURORA         PTCLDY    45  34  67 S9        30.28S
FRONT RANGE AP FAIR      51  37  57 SW8       30.28S
ERIE MUNI ARPT FAIR      39  33  79 CALM      30.30F
BOULDER MUN AP FAIR      52  34  50 S3        30.25S
CENTENNIAL     FAIR      46  34  62 SW7       30.28S
BROOMFIELD     FAIR      57  34  41 W17       30.28S
FORT COLLINS   FAIR      46  36  68 S6        30.24F
LONGMONT       FAIR      42  34  74 CALM      30.27S
$$

COZ041-046-047-076>085-087-088-230700-
...PIKES PEAK/PALMER DIVIDE AND SOUTHERN FOOTHILLS...

CITY           SKY/WX    TMP DP  RH WIND       PRES   REMARKS
COLO. SPRINGS  FAIR      46  32  58 N10       30.32R
A. F. ACADEMY  FAIR      35  29  78 N7        30.32S WCI  30
SCHRIEVER AFB  FAIR      48  31  50 N8        30.31S
CHEYENNE MTN   FAIR      49  31  49 NW8       30.29R
ELLICOTT         N/A      1   1 100 NE3       30.30S
FALCON         FAIR      41  31  66 NW7       30.34S
FORT CARSON    FAIR      43  31  63 N7        30.28F
LIMON          FAIR      40  33  76 N3        30.28R
MONUMENT HILL  FAIR      37  32  81 W9        30.35S
CANON CITY     FAIR      54  34  47 W8        30.29S
WALSENBURG     FAIR      52  32  46 W12       30.31F
TRINIDAD       FAIR      43  28  55 W10       30.29S
$$

COZ042>045-048>051-090-091-230700-
...NORTHEAST COLORADO...

CITY           SKY/WX    TMP DP  RH WIND       PRES   REMARKS
GREELEY ARPT   FAIR      37  31  78 NW5       30.24F
AKRON          FAIR      45  35  68 NW10      30.22S
BURLINGTON     FAIR      42  34  73 W8        30.20S
WRAY           NOT AVBL
YUMA           FAIR      39  34  81 W9        30.19S
STERLING       FAIR      46  37  71 CALM      30.18S
HOLYOKE        FAIR      46  37  71 NW10      30.16S
FORT MORGAN    FAIR      46  33  59 W7        30.23S
$$

COZ086-089-092>099-230700-
...SOUTHEAST COLORADO...

CITY           SKY/WX    TMP DP  RH WIND       PRES   REMARKS
PUEBLO         FAIR      41  28  60 CALM      30.25S
LA JUNTA       FAIR      44  29  55 SE6       30.22S
LAMAR          FAIR      37  25  61 SW6       30.19R
SPRINGFIELD      N/A     41  28  60 W3        30.21F
$$




USA.gov is the U.S. government's official web portal to all federal, state and local government web resources and services.